Location: Cave
(41.8160°N, 12.9350°E)
Time: 21:01:34
(UTC+01:00)

ISS - Pass Details

Date: 09 March 2019
Orbit: 406 x 411 km, 51.6° (Epoch: 19 March)

Event Time Altitude Azimuth Distance (km) Brightness Sun altitude
Exits shadow 04:21:18 14° 11° (N) 1,231 -1.1 -24.8°
Drops below altitude 10° 04:22:47 10° 38° (NE) 1,468 -0.3 -24.5°
Enters shadow 05:18:42 -72° 270° (W) 12,565 3.7 -14.3°
Maximum altitude 05:58:14 25° 21° (NNE) 862 -1.9 -6.9°
